Broomfield, CO

1:28 PM MDT on June 23, 2017 (GMT -0600)
Jeffco

Weather History for KBJC - July, 2014

Change the Weather History Date:

Wednesday, July 9, 2014

  Actual Average Record
Temperature  
Mean Temperature 74 °F -  
Max Temperature 89 °F 86 °F 97 °F (1989)
Min Temperature 60 °F 61 °F 48 °F (2013)
Cooling Degree Days 10    
Growing Degree Days 24 (Base 50)    
Moisture  
Dew Point 52 °F    
Average Humidity 56    
Maximum Humidity 77    
Minimum Humidity 21    
Precipitation  
Precipitation 0.00 in - - ()
Sea Level Pressure  
Sea Level Pressure 30.13 in    
Wind  
Wind Speed 6 mph (WSW)    
Max Wind Speed 20 mph    
Max Gust Speed 29 mph    
Visibility 12 miles    
Events      
Averages and records for this station are not official NWS values.
T = Trace of Precipitation, MM = Missing Value Source: NWS Daily Summary

Daily Weather History Graph

Daily Weather History Graph

Search for Another Location

Airport or City:

Trip Planner

Search our weather history database for the weather conditions in past years. The results will help you decide how hot, cold, wet, or windy it might be!

Date:

Astronomy

Jul. 09, 2014 Rise Set
Actual Time 5:40 AM MDT 8:30 PM MDT
Civil Twilight 5:08 AM MDT 9:03 PM MDT
Nautical Twilight 4:27 AM MDT 9:43 PM MDT
Astronomical Twilight 3:40 AM MDT 10:29 PM MDT
Moon 5:44 PM MDT (7/9) 3:00 AM MDT (7/9)
Length of Visible Light 15h 54m
Length of Day
14h 50m
Waxing Gibbous, 90% of the Moon is Illuminated
Jul 9
Waxing Gibbous
Jul 12
Full
Jul 18
Last Quarter
Jul 26
New
Aug 3
First Quarter

Hourly Weather History & Observations

Time (MDT) Temp. Heat Index Dew Point Humidity Pressure Visibility Wind Dir Wind Speed Gust Speed Precip Events Conditions
12:15 AM 68.0 °F - 55.4 °F 64% 30.19 in 10.0 mi NNW 10.4 mph - N/A   Clear
12:35 AM 68.0 °F - 55.4 °F 64% 30.19 in 10.0 mi NNW 9.2 mph - N/A   Clear
12:55 AM 68.0 °F - 55.4 °F 64% 30.19 in 10.0 mi NNW 8.1 mph - N/A   Clear
1:15 AM 68.0 °F - 55.4 °F 64% 30.19 in 10.0 mi Calm Calm - N/A   Clear
1:35 AM 64.4 °F - 55.4 °F 73% 30.18 in 10.0 mi Calm Calm - N/A   Clear
1:55 AM 62.6 °F - 55.4 °F 77% 30.18 in 10.0 mi Calm Calm - N/A   Clear
2:15 AM 62.6 °F - 55.4 °F 77% 30.18 in 10.0 mi Calm Calm - N/A   Clear
2:35 AM 62.6 °F - 55.4 °F 77% 30.17 in 10.0 mi West 3.5 mph - N/A   Clear
2:55 AM 64.4 °F - 55.4 °F 73% 30.16 in 10.0 mi Calm Calm - N/A   Clear
3:15 AM 64.4 °F - 55.4 °F 73% 30.16 in 10.0 mi Calm Calm - N/A   Clear
3:35 AM 64.4 °F - 55.4 °F 73% 30.16 in 10.0 mi Calm Calm - N/A   Clear
3:55 AM 62.6 °F - 55.4 °F 77% 30.16 in 10.0 mi Calm Calm - N/A   Clear
4:14 AM 62.6 °F - 55.4 °F 77% 30.15 in 10.0 mi Calm Calm - N/A   Clear
4:35 AM 62.6 °F - 55.4 °F 77% 30.15 in 10.0 mi Calm Calm - N/A   Clear
4:55 AM 62.6 °F - 53.6 °F 72% 30.15 in 10.0 mi Calm Calm - N/A   Clear
5:15 AM 60.8 °F - 53.6 °F 77% 30.15 in 10.0 mi Calm Calm - N/A   Clear
5:35 AM 60.8 °F - 53.6 °F 77% 30.15 in 10.0 mi WSW 3.5 mph - N/A   Clear
5:55 AM 60.8 °F - 53.6 °F 77% 30.14 in 10.0 mi WSW 4.6 mph - N/A   Clear
6:50 AM 64.4 °F - 55.4 °F 73% 30.14 in 50.0 mi SSW 4.6 mph - N/A   Scattered Clouds
7:47 AM 68.0 °F - 53.6 °F 60% 30.13 in 50.0 mi South 6.9 mph - N/A   Scattered Clouds
8:47 AM 75.2 °F - 53.6 °F 47% 30.13 in 50.0 mi South 6.9 mph - N/A   Scattered Clouds
9:47 AM 82.4 °F - 50.0 °F 32% 30.13 in 50.0 mi South 5.8 mph - N/A   Mostly Cloudy
10:55 AM 86.0 °F - 46.4 °F 25% 30.12 in 50.0 mi South 5.8 mph - N/A   Scattered Clouds
11:48 AM 89.6 °F - 44.6 °F 21% 30.11 in 50.0 mi NE 3.5 mph - N/A   Mostly Cloudy
12:53 PM 89.6 °F - 51.8 °F 27% 30.10 in 20.0 mi NE 15.0 mph 20.7 mph N/A   Mostly Cloudy
2:55 PM 86.0 °F 85.4 °F 59.0 °F 40% 30.08 in 20.0 mi NW 17.3 mph - N/A   Mostly Cloudy
3:55 PM 84.2 °F 83.5 °F 57.2 °F 40% 30.07 in 20.0 mi NW 16.1 mph - N/A   Mostly Cloudy
4:45 PM 80.6 °F 80.8 °F 57.2 °F 45% 30.07 in 20.0 mi NNW 9.2 mph - N/A   Mostly Cloudy
5:55 PM 78.8 °F - 50.0 °F 36% 30.05 in 15.0 mi WSW 10.4 mph - N/A   Mostly Cloudy
6:50 PM 80.6 °F - 48.2 °F 32% 30.07 in 30.0 mi SW 10.4 mph - N/A   Mostly Cloudy
8:46 PM 77.0 °F - 41.0 °F 28% 30.06 in 30.0 mi SW 19.6 mph 28.8 mph N/A   Mostly Cloudy
9:48 PM 75.2 °F - 42.8 °F 31% 30.05 in 30.0 mi SW 19.6 mph 28.8 mph N/A   Mostly Cloudy
11:14 PM 77.0 °F - 41.0 °F 28% 30.05 in 10.0 mi Calm Calm - N/A   Clear
11:35 PM 71.6 °F - 42.8 °F 35% 30.05 in 10.0 mi ENE 5.8 mph - N/A   Clear
11:55 PM 69.8 °F - 44.6 °F 40% 30.07 in 10.0 mi ESE 4.6 mph - N/A   Clear